CST,Max TemperatureF,Mean TemperatureF,Min TemperatureF,Max Dew PointF,MeanDew PointF,Min DewpointF,Max Humidity, Mean Humidity, Min Humidity, Max Sea Level PressureIn, Mean Sea Level PressureIn, Min Sea Level PressureIn, Max VisibilityMiles, Mean VisibilityMiles, Min VisibilityMiles, Max Wind SpeedMPH, Mean Wind SpeedMPH, Max Gust SpeedMPH,PrecipitationIn, CloudCover, Events, WindDirDegrees
2013-2-1,19,4,-11,14,0,-17,100,81,65,30.27,30.07,29.94,10,10,3,17,7,21,0.00,5,,212
2013-2-2,30,18,5,28,14,1,100,87,74,30.12,30.04,29.92,10,7,0,37,10,47,0.00,7,,301
2013-2-3,24,17,10,19,12,3,92,81,68,30.12,29.96,29.82,10,9,3,22,12,23,0.00,6,,65
2013-2-4,21,12,3,18,9,0,100,85,67,30.03,29.90,29.72,10,10,4,16,8,17,0.00,4,,217
2013-2-5,32,24,17,28,23,16,100,86,80,30.03,29.88,29.69,10,9,5,23,10,26,0.00,5,,303
2013-2-6,37,26,15,34,26,10,100,88,75,30.01,29.89,29.80,10,8,2,21,9,28,0.00,3,,172
2013-2-7,26,22,19,27,21,18,100,94,86,30.26,30.13,29.98,7,4,0,16,11,17,0.00,8,,17
2013-2-8,28,24,19,25,20,16,100,90,80,30.28,30.17,30.01,10,9,5,23,11,33,0.00,6,,162
2013-2-9,33,30,26,32,28,25,93,90,86,30.01,29.87,29.70,6,4,2,23,16,32,0.00,8,,165
2013-2-10,33,28,24,30,26,21,100,92,86,29.71,29.46,29.30,5,2,0,30,17,34,0.00,8,,58
2013-2-11,24,20,17,21,16,12,93,86,74,30.05,29.94,29.63,10,6,1,33,23,40,0.00,8,,320
2013-2-12,26,20,14,21,16,10,100,83,64,30.02,29.90,29.84,10,10,4,14,8,17,0.00,2,,251
2013-2-13,37,28,19,32,25,18,100,82,69,29.84,29.70,29.60,10,10,7,26,7,36,0.00,5,,262
2013-2-14,28,16,5,27,16,0,100,84,58,30.25,30.00,29.74,10,8,1,23,14,25,0.00,5,,312
2013-2-15,17,10,3,12,7,0,100,86,68,30.33,30.29,30.24,10,9,1,14,3,,0.00,5,,305
2013-2-16,26,17,8,21,14,7,100,90,74,30.24,30.06,29.96,10,9,1,12,6,,0.00,4,,124
2013-2-17,39,29,19,32,25,18,100,84,70,29.96,29.70,29.51,10,9,5,21,11,25,0.00,1,,167
2013-2-18,33,20,6,30,13,0,92,80,72,30.01,29.77,29.56,10,7,0,34,20,45,0.00,6,,300
2013-2-19,6,-2,-9,1,-9,-18,100,79,65,30.37,30.23,30.02,10,10,5,29,19,34,0.00,3,,307
2013-2-20,12,0,-11,9,-4,-27,100,79,26,30.38,30.31,30.24,10,10,10,16,6,18,0.00,3,,91
2013-2-21,17,11,5,12,7,0,100,79,68,30.28,30.16,30.01,10,9,2,20,12,25,0.00,5,,83
2013-2-22,21,16,12,18,13,7,93,85,79,30.00,29.94,29.90,10,6,2,17,11,17,0.00,7,,338
2013-2-23,23,10,-2,18,8,-9,100,86,66,29.90,29.85,29.81,10,9,0,9,3,,0.00,1,,117
2013-2-24,30,16,3,21,13,-2,100,85,69,30.07,29.98,29.88,10,8,0,8,2,,0.00,2,,95
2013-2-25,26,19,12,23,19,10,100,94,80,30.09,30.04,29.97,6,2,0,10,2,,0.00,7,,10
2013-2-26,24,19,14,25,19,12,100,96,86,30.00,29.96,29.92,3,2,0,16,7,18,0.00,8,,42
2013-2-27,28,22,15,25,18,12,93,82,64,30.11,30.04,29.98,10,9,3,24,12,30,0.00,2,,315
2013-2-28,24,20,15,19,18,12,100,87,80,30.24,30.19,30.11,10,10,7,15,12,21,0.00,7,,320